Cork, Ireland

9:39 AM IST on September 25, 2017 (GMT +0100)
Cork

Weather History for EICK - December, 2012

Change the Weather History Date:

Thursday, December 13, 2012

  Actual Average Record
Temperature  
Mean Temperature 42 °F -  
Max Temperature 46 °F 47 °F 55 °F (1998)
Min Temperature 39 °F 38 °F 32 °F (1996)
Degree Days  
Heating Degree Days 22    
Moisture  
Dew Point 40 °F    
Average Humidity 90    
Maximum Humidity 100    
Minimum Humidity 71    
Precipitation  
Precipitation 0.04 in 0.19 in - ()
Sea Level Pressure  
Sea Level Pressure 29.43 in    
Wind  
Wind Speed 14 mph ()    
Max Wind Speed 23 mph    
Max Gust Speed -    
Visibility 6.2 miles    
Events Rain    
Averages and records for this station are not official NWS values.
T = Trace of Precipitation, MM = Missing Value Source: Averaged Metar Reports

Daily Weather History Graph

Daily Weather History Graph

Search for Another Location

Airport or City:

Trip Planner

Search our weather history database for the weather conditions in past years. The results will help you decide how hot, cold, wet, or windy it might be!

Date:

Astronomy

Dec. 13, 2012 Rise Set
Actual Time 8:33 AM GMT 4:23 PM GMT
Civil Twilight 7:52 AM GMT 5:03 PM GMT
Nautical Twilight 7:09 AM GMT 5:47 PM GMT
Astronomical Twilight 6:28 AM GMT 6:28 PM GMT
Moon 8:25 AM GMT (12/13) 4:52 PM GMT (12/13)
Length of Visible Light 9h 10m
Length of Day
7h 49m
New Moon, 0% of the Moon is Illuminated
Dec 13
New Moon
Dec 20
First Quarter
Dec 28
Full
Jan 5
Last Quarter
Jan 11
New

Hourly Weather History & Observations

Time (GMT) Temp. Windchill Dew Point Humidity Pressure Visibility Wind Dir Wind Speed Gust Speed Precip Events Conditions
12:00 AM 43 °F - 41 °F 88% 29.68 in 12 mi SE 17.9 mph - - Rain Light Rain
12:00 AM 42.8 °F 34.8 °F 41.0 °F 93% 29.65 in 6.2 mi SE 17.3 mph - N/A   Mostly Cloudy
12:30 AM 42.8 °F 34.5 °F 41.0 °F 93% 29.62 in 6.2 mi SE 18.4 mph - N/A   Mostly Cloudy
1:00 AM 42.8 °F 35.4 °F 39.2 °F 87% 29.62 in 6.2 mi ESE 15.0 mph - N/A   Mostly Cloudy
1:30 AM 41.0 °F 34.3 °F 37.4 °F 87% 29.62 in 6.2 mi ESE 11.5 mph - N/A   Mostly Cloudy
2:00 AM 41.0 °F 34.7 °F 37.4 °F 87% 29.62 in 6.2 mi ESE 10.4 mph - N/A   Scattered Clouds
2:30 AM 41.0 °F 34.3 °F 37.4 °F 87% 29.59 in 6.2 mi ESE 11.5 mph - N/A   Mostly Cloudy
3:00 AM 41.0 °F 34.7 °F 37.4 °F 87% 29.59 in 6.2 mi ESE 10.4 mph - N/A   Mostly Cloudy
3:30 AM 41.0 °F 35.2 °F 37.4 °F 87% 29.59 in 6.2 mi ESE 9.2 mph - N/A   Mostly Cloudy
4:00 AM 41.0 °F 34.3 °F 37.4 °F 87% 29.56 in 6.2 mi ESE 11.5 mph - N/A   Mostly Cloudy
4:30 AM 41.0 °F 34.3 °F 35.6 °F 81% 29.56 in 6.2 mi ESE 11.5 mph - N/A   Mostly Cloudy
5:00 AM 41.0 °F 33.5 °F 35.6 °F 81% 29.53 in 6.2 mi ESE 13.8 mph - N/A   Mostly Cloudy
5:30 AM 41.0 °F 34.3 °F 35.6 °F 81% 29.53 in 6.2 mi ESE 11.5 mph - N/A   Mostly Cloudy
6:00 AM 41 °F - 35 °F 71% 29.56 in 16 mi ESE 11.2 mph - -   Mostly Cloudy
6:00 AM 41.0 °F 34.7 °F 35.6 °F 81% 29.53 in 6.2 mi ESE 10.4 mph - N/A   Mostly Cloudy
6:30 AM 41.0 °F 33.9 °F 33.8 °F 76% 29.53 in 6.2 mi SE 12.7 mph - N/A   Mostly Cloudy
7:00 AM 39.2 °F 31.6 °F 33.8 °F 81% 29.53 in 6.2 mi SE 12.7 mph - N/A   Mostly Cloudy
7:30 AM 39.2 °F 32.0 °F 35.6 °F 87% 29.53 in 6.2 mi SE 11.5 mph - N/A   Mostly Cloudy
8:00 AM 39.2 °F 32.0 °F 33.8 °F 81% 29.50 in 6.2 mi SE 11.5 mph - N/A   Mostly Cloudy
8:30 AM 41.0 °F 33.9 °F 35.6 °F 81% 29.50 in 6.2 mi ESE 12.7 mph - N/A   Mostly Cloudy
9:00 AM 41.0 °F 33.1 °F 33.8 °F 76% 29.50 in 6.2 mi ESE 15.0 mph - N/A   Mostly Cloudy
9:30 AM 41.0 °F 33.5 °F 33.8 °F 76% 29.50 in 6.2 mi ESE 13.8 mph - N/A   Mostly Cloudy
10:00 AM 41.0 °F 33.1 °F 33.8 °F 76% 29.50 in 6.2 mi ESE 15.0 mph - N/A   Mostly Cloudy
10:30 AM 41.0 °F 33.1 °F 35.6 °F 81% 29.47 in 6.2 mi ESE 15.0 mph - N/A   Mostly Cloudy
11:00 AM 41.0 °F 32.5 °F 35.6 °F 81% 29.47 in 6.2 mi ESE 17.3 mph - N/A   Mostly Cloudy
11:30 AM 41.0 °F 32.2 °F 37.4 °F 87% 29.44 in 6.2 mi ESE 18.4 mph - N/A   Mostly Cloudy
12:00 PM 42 °F - 38 °F 83% 29.47 in 16 mi ESE 17.9 mph - -   Mostly Cloudy
12:00 PM 42.8 °F 34.5 °F 39.2 °F 87% 29.44 in 6.2 mi ESE 18.4 mph - N/A   Mostly Cloudy
12:30 PM 42.8 °F 34.8 °F 39.2 °F 87% 29.42 in 6.2 mi ESE 17.3 mph - N/A Rain Light Rain
1:00 PM 42.8 °F 35.1 °F 41.0 °F 93% 29.42 in 4.3 mi ESE 16.1 mph - N/A Rain Light Rain
1:30 PM 42.8 °F 35.1 °F 42.8 °F 100% 29.42 in 3.1 mi ESE 16.1 mph - N/A Rain Light Rain
2:00 PM 42.8 °F 35.1 °F 42.8 °F 100% 29.42 in 3.1 mi ESE 16.1 mph - N/A Rain Light Rain
2:30 PM 42.8 °F 34.8 °F 42.8 °F 100% 29.39 in 3.1 mi ESE 17.3 mph - N/A   Light Drizzle
3:00 PM 44.6 °F 37.4 °F 42.8 °F 93% 29.39 in 3.1 mi ESE 16.1 mph - N/A Rain Light Rain
3:30 PM 44.6 °F 36.9 °F 44.6 °F 100% 29.36 in 2.5 mi ESE 18.4 mph - N/A Rain Light Rain
4:00 PM 44.6 °F 36.6 °F 44.6 °F 100% 29.36 in 2.5 mi SE 19.6 mph - N/A Rain Light Rain
4:30 PM 44.6 °F 36.6 °F 44.6 °F 100% 29.33 in 3.7 mi SE 19.6 mph - N/A Rain Light Rain
5:00 PM 44.6 °F 36.1 °F 44.6 °F 100% 29.30 in 6.2 mi SE 21.9 mph - N/A Rain Light Rain
5:30 PM 46.4 °F 38.5 °F 46.4 °F 100% 29.27 in 6.2 mi SE 21.9 mph - N/A Rain Light Rain
6:00 PM 46 °F - 46 °F 97% 29.30 in 7 mi SE 22.4 mph - - Rain Light Rain
6:00 PM 46.4 °F 38.5 °F 46.4 °F 100% 29.27 in 6.2 mi SE 21.9 mph - N/A Rain Light Rain
6:30 PM 46.4 °F 38.5 °F 46.4 °F 100% 29.27 in 6.2 mi SE 21.9 mph - N/A   Light Drizzle
7:00 PM 46.4 °F 38.3 °F 46.4 °F 100% 29.27 in 6.2 mi SE 23.0 mph - N/A   Mostly Cloudy
7:30 PM 46.4 °F 39.0 °F 46.4 °F 100% 29.24 in 6.2 mi SE 19.6 mph - N/A   Mostly Cloudy
8:00 PM 46.4 °F 40.1 °F 46.4 °F 100% 29.24 in 5.6 mi SSE 15.0 mph - N/A Rain Light Rain
8:30 PM 46.4 °F 39.5 °F 44.6 °F 93% 29.21 in 6.2 mi SSE 17.3 mph - N/A   Mostly Cloudy
9:00 PM 46.4 °F 39.0 °F 46.4 °F 100% 29.21 in 6.2 mi SE 19.6 mph - N/A   Mostly Cloudy
9:30 PM 46.4 °F 38.7 °F 46.4 °F 100% 29.18 in 6.2 mi SE 20.7 mph - N/A   Mostly Cloudy
10:00 PM 46.4 °F 38.7 °F 46.4 °F 100% 29.15 in 6.2 mi SE 20.7 mph - N/A   Mostly Cloudy
10:30 PM 46.4 °F 38.5 °F 46.4 °F 100% 29.12 in 6.2 mi SE 21.9 mph - N/A   Mostly Cloudy
11:30 PM 46.4 °F 38.3 °F 46.4 °F 100% 29.06 in 6.2 mi SE 23.0 mph - N/A   Mostly Cloudy